Theta_e
295 294 294 295 296 296 297 298 299 299 299 300 303 307 310 312 312 312 312 311 312 312 310 308 309 311 310 308 308 308 308 308 308 307 307 307 307 307 307 307 307 308 307 306 308 310 310 312 314 313 314 314 313 313 313 313 314 316 318 317 318 319 318 317 316 315 314 313 311 309 311 313 315 316 315 314 315 315 315 315 317 318 317 317 317 316 320
295 294 294 295 296 297 298 299 300 300 300 302 305 309 312 312 312 312 312 311 312 312 309 308 310 310 310 309 309 307 307 308 308 307 308 308 307 308 309 307 307 308 307 308 310 311 310 311 313 313 313 314 313 313 314 315 316 318 319 319 320 319 318 317 316 316 316 316 315 314 314 315 316 316 316 315 314 313 315 315 316 317 317 317 317 316 320
294 294 295 296 296 298 299 300 301 302 302 303 306 309 311 312 312 312 311 312 312 311 309 308 310 311 311 310 309 308 307 307 307 307 307 307 306 308 308 307 307 308 308 309 310 309 310 312 311 311 312 312 312 313 313 313 315 319 319 318 318 318 319 319 317 317 317 317 317 315 315 315 315 314 314 315 314 314 316 316 316 316 316 316 317 317 321
294 294 295 296 297 300 300 301 303 305 305 304 307 310 311 311 311 311 311 312 311 309 308 307 309 310 310 308 307 307 308 306 306 306 307 306 306 307 306 306 307 307 308 312 311 308 308 310 310 310 310 311 310 311 313 312 311 316 318 316 316 318 317 318 320 318 316 316 314 311 312 316 318 317 315 314 314 313 314 315 316 317 316 316 318 320 323
294 295 296 297 299 301 301 302 304 306 306 306 308 310 310 310 310 310 310 310 308 307 306 306 308 308 307 308 306 306 308 307 306 307 307 306 306 306 305 305 306 307 308 311 311 307 307 308 309 308 307 309 309 308 311 313 311 313 316 315 318 320 316 315 319 318 314 314 313 311 312 315 315 316 315 314 314 315 317 317 317 317 316 317 318 320 324
294 295 297 298 300 302 301 302 304 306 307 307 308 309 309 308 308 307 309 309 307 306 305 306 308 307 306 307 307 307 308 307 306 306 306 306 305 306 307 305 304 305 305 307 309 308 309 309 308 307 306 308 311 310 311 313 310 311 314 315 319 321 317 314 315 315 313 312 313 312 312 311 310 312 314 314 315 318 320 318 316 316 317 318 319 320 323
294 296 297 298 301 302 302 303 303 305 306 307 308 308 307 307 307 306 307 306 305 306 305 304 306 307 307 307 307 307 308 306 305 305 307 308 306 305 307 305 303 304 304 306 307 307 308 308 307 307 307 308 311 312 312 312 309 308 312 314 317 318 317 316 316 314 313 313 312 312 311 311 310 311 311 313 315 317 318 317 317 317 318 319 320 322 322
295 296 297 299 302 302 302 303 303 304 305 306 307 307 306 307 307 307 306 306 304 304 303 304 307 307 305 306 305 305 307 306 304 304 306 309 307 305 305 304 304 305 305 306 306 305 305 305 305 306 306 308 310 312 312 311 309 309 311 313 316 316 316 316 316 315 315 314 313 313 312 311 311 311 310 311 314 316 316 316 317 318 320 320 320 323 321
295 297 298 299 302 303 302 303 303 303 304 306 307 307 307 308 307 307 307 306 304 303 301 302 307 307 305 305 305 305 306 304 304 305 304 305 306 305 304 305 305 305 306 306 305 304 304 304 304 305 305 305 307 309 309 309 310 312 312 313 315 317 315 314 315 316 316 314 314 314 314 313 312 311 310 311 313 313 313 313 314 316 320 320 320 322 320
295 297 298 300 302 302 302 303 303 303 304 304 305 307 308 308 308 307 307 306 303 301 302 302 305 305 303 304 305 305 304 303 302 305 304 303 305 304 304 305 305 305 306 306 304 303 303 304 304 304 303 303 304 304 306 307 308 311 313 314 315 316 314 314 315 317 316 313 314 316 316 317 315 312 309 310 311 311 312 313 312 312 315 318 319 319 315
296 297 298 300 302 302 302 303 303 304 304 304 304 306 307 308 308 306 306 307 301 299 302 305 304 304 302 302 304 305 305 304 303 304 305 305 305 304 303 304 305 306 306 304 303 303 303 304 304 303 303 303 303 304 306 307 306 308 311 314 315 316 316 315 315 316 315 314 314 316 317 318 315 309 307 308 310 310 312 313 311 311 313 314 314 311 309
296 297 298 300 302 302 302 302 303 304 304 304 304 306 306 307 308 305 306 308 302 299 303 304 302 303 301 300 302 304 304 304 302 302 304 306 305 303 302 303 305 306 304 303 302 303 305 306 305 304 304 304 304 306 308 308 306 306 308 311 313 316 316 314 313 314 315 314 314 317 318 315 311 307 306 307 308 308 310 311 309 309 310 310 309 306 304
296 297 298 300 301 302 302 302 303 303 304 304 305 306 306 307 307 304 304 306 303 301 303 302 299 300 301 300 301 302 301 301 300 300 302 304 305 304 303 303 304 304 303 303 303 304 307 309 308 307 307 307 307 308 309 309 307 306 307 308 310 314 314 312 312 313 314 314 315 316 315 311 309 308 306 306 307 307 309 311 310 308 308 308 306 305 303
296 296 298 300 301 302 301 302 302 303 303 304 304 304 305 305 305 303 303 305 302 299 299 301 300 301 301 300 301 301 301 300 301 301 302 302 303 303 302 302 303 303 303 303 304 305 308 309 308 308 308 309 309 310 311 311 308 306 307 307 307 311 313 313 312 311 312 315 314 313 313 311 309 308 306 305 306 305 307 310 310 307 307 306 304 303 303
296 296 298 300 301 302 301 301 302 302 302 303 303 303 303 302 302 302 302 303 303 299 298 300 301 301 301 300 299 301 303 303 302 302 301 300 301 302 302 301 303 303 303 303 305 306 308 308 308 309 309 309 310 310 310 310 309 307 307 307 307 309 312 313 314 311 310 313 314 312 314 313 309 307 305 304 305 304 304 308 309 306 305 305 304 302 302
296 297 298 300 301 301 301 301 302 302 301 301 301 301 301 300 301 301 301 302 302 300 298 299 299 299 299 299 299 300 301 302 302 302 303 302 301 301 301 302 303 303 302 303 305 307 307 306 305 307 307 307 308 309 309 308 308 307 306 306 308 309 309 311 312 310 309 311 312 311 313 311 307 305 304 304 304 303 304 309 311 306 304 304 304 302 303
296 297 299 301 301 301 301 301 302 302 301 300 300 299 299 299 300 301 300 300 300 299 298 298 299 299 299 299 300 299 299 300 300 301 303 303 301 300 301 302 303 302 302 304 306 307 306 304 304 306 305 303 305 309 308 306 307 307 305 305 307 308 307 308 310 309 308 309 310 310 310 308 305 304 304 303 303 303 308 314 313 305 303 304 303 302 304
296 297 299 301 302 302 301 301 301 302 301 300 300 300 299 299 299 300 299 299 299 299 299 299 299 299 299 300 300 299 299 300 299 299 301 301 299 300 301 301 302 302 303 305 307 306 305 305 305 306 305 303 303 306 305 305 305 305 304 304 305 305 305 306 307 307 307 309 310 309 308 306 304 303 303 303 303 307 312 313 308 304 304 305 303 303 304
295 297 300 302 302 302 302 301 301 301 301 300 300 300 300 299 299 299 299 299 299 299 299 299 299 299 299 299 299 299 299 299 299 300 301 301 300 300 300 300 301 302 302 304 305 304 304 304 302 303 305 305 304 303 303 303 304 303 304 304 304 304 304 305 305 305 305 307 308 309 307 305 303 303 303 303 306 310 310 306 304 304 304 304 303 303 303
295 296 300 302 302 302 302 301 301 301 301 301 300 299 299 299 299 299 299 299 299 299 299 299 300 300 300 300 300 300 300 300 300 300 301 301 300 300 302 302 302 302 303 305 304 302 303 303 301 302 304 304 303 303 304 303 302 302 303 304 304 303 304 305 304 304 305 306 308 309 308 305 302 303 304 304 306 307 304 302 304 305 303 302 302 302 302
295 297 300 302 303 303 302 300 300 301 301 301 300 299 299 299 299 299 299 299 300 300 299 300 300 300 300 300 300 300 300 300 300 300 300 300 299 301 303 302 301 301 302 303 303 302 302 302 301 302 303 302 302 303 303 303 303 302 302 303 304 303 303 304 303 303 306 308 308 307 306 303 301 302 303 302 302 302 301 302 304 304 302 302 301 301 301
295 297 299 301 301 301 299 298 299 300 301 301 300 300 300 300 300 300 300 300 300 300 300 300 300 300 300 300 300 301 301 300 300 299 300 300 299 300 301 301 300 301 301 301 302 302 302 302 302 302 302 302 302 302 301 302 304 303 302 303 304 303 303 303 303 303 304 305 305 303 302 302 301 301 301 301 300 301 302 303 303 303 302 302 301 300 300
295 296 297 297 297 297 297 297 298 299 300 301 301 300 300 300 300 300 300 300 300 300 300 300 300 300 300 300 301 301 301 300 300 299 299 300 300 300 300 300 301 301 300 301 302 302 302 302 301 301 301 301 301 302 302 302 303 303 302 302 303 302 301 303 303 302 302 303 302 302 302 302 302 301 301 300 301 301 302 303 302 302 302 302 301 300 300
296 296 296 296 296 296 296 296 297 298 299 301 301 301 300 300 299 300 300 300 299 299 299 300 300 300 300 300 301 301 300 300 300 299 299 300 301 300 300 300 300 300 300 300 301 301 301 301 300 301 301 300 300 302 302 302 302 301 302 302 302 301 301 302 302 302 302 303 302 301 301 301 301 301 301 301 301 302 302 302 302 301 302 302 301 300 299
296 296 296 296 296 296 296 296 296 297 298 300 301 301 301 300 299 300 300 300 300 300 300 300 300 300 300 300 300 300 299 299 299 299 300 300 300 300 300 300 300 300 300 300 300 300 301 300 300 302 301 300 300 301 301 301 301 301 301 302 302 301 302 302 302 302 302 302 301 301 301 301 301 301 301 301 301 302 302 302 302 302 302 301 301 301 300
295 295 295 295 295 295 296 296 296 297 298 299 300 301 301 301 300 301 301 300 300 300 300 300 300 300 300 301 300 300 300 299 299 299 299 299 299 300 300 300 301 301 300 301 301 300 300 300 301 302 302 300 300 301 301 301 301 301 302 301 301 301 302 301 301 302 302 301 301 302 302 302 301 301 301 301 301 301 302 302 302 302 302 301 301 301 301
295 295 295 295 295 295 295 296 297 297 298 298 299 300 301 302 302 302 301 300 300 300 300 300 300 300 300 300 300 300 300 299 299 299 299 299 299 299 300 300 300 301 301 301 301 301 301 301 300 300 300 300 300 299 300 300 301 302 302 301 300 302 302 301 301 302 302 302 302 302 302 302 302 301 301 301 301 301 301 301 301 302 302 302 301 301 301
296 296 296 295 295 295 295 295 296 298 298 298 299 300 301 302 302 302 301 301 301 301 300 300 300 300 300 300 300 300 300 299 299 299 299 299 299 299 299 300 300 301 301 301 300 300 300 300 298 297 298 299 299 299 299 299 301 302 302 300 300 302 302 301 302 302 302 302 302 301 302 303 302 301 301 301 301 302 302 302 302 302 302 302 301 300 300
296 296 296 296 296 296 296 295 296 297 299 299 299 300 301 302 302 302 301 301 301 300 300 300 300 300 300 300 300 300 300 300 299 299 299 299 299 299 299 300 300 300 300 300 299 298 297 297 297 297 298 299 300 300 300 299 301 302 301 300 300 301 301 301 302 302 302 302 301 301 302 303 302 302 302 302 302 302 302 301 301 301 301 301 300 299 299
296 296 296 296 296 296 296 296 295 297 299 299 299 299 300 301 302 302 301 301 300 300 300 301 301 300 300 300 300 300 300 300 300 299 299 299 299 299 299 300 300 300 300 300 299 297 297 297 297 298 298 299 300 300 300 300 301 301 300 300 301 302 301 302 302 302 302 301 301 301 302 303 303 303 302 302 301 300 300 300 299 299 299 299 298 298 298
296 296 296 296 297 297 296 296 295 296 299 300 299 299 299 300 301 302 301 300 300 300 300 300 301 300 299 300 300 300 300 300 300 300 299 299 299 299 299 299 300 300 300 299 298 297 297 296 297 298 299 299 300 300 299 300 301 301 300 300 301 302 302 302 302 302 302 301 301 301 301 302 302 301 301 300 300 299 299 299 299 298 298 298 297 297 297
296 296 296 297 297 297 296 295 295 296 298 300 301 299 298 299 301 302 301 300 301 301 300 301 300 299 299 300 300 300 300 300 300 300 299 299 299 299 299 299 299 299 299 299 298 298 297 297 297 298 298 299 300 300 299 300 301 300 299 300 301 302 302 302 302 302 301 301 301 301 301 300 300 301 301 300 300 299 299 299 298 297 297 297 297 297 297
296 296 297 297 296 296 295 295 296 296 298 300 301 299 298 299 301 302 301 301 301 301 300 301 300 299 299 300 300 300 300 300 299 299 299 299 299 299 299 299 299 299 299 299 298 298 298 298 298 298 298 298 299 299 299 299 298 298 299 301 301 301 301 301 302 302 301 301 300 301 301 300 300 301 301 300 300 300 299 299 298 297 297 297 297 297 297
296 296 296 296 296 296 296 297 297 298 299 301 301 300 298 299 301 302 302 301 301 301 300 300 301 300 300 300 300 300 300 299 299 299 299 299 299 299 299 299 299 299 298 298 297 297 298 298 298 298 297 297 297 298 298 297 297 298 299 301 301 301 301 301 301 301 301 301 301 301 301 301 301 301 301 301 300 300 299 299 298 297 297 297 297 297 297
296 296 295 296 297 298 298 298 299 299 299 300 301 301 300 299 300 302 303 301 301 301 300 300 300 300 300 301 301 300 299 299 299 299 299 299 299 299 299 299 299 298 298 298 297 297 297 298 298 297 296 296 297 298 297 297 297 298 300 301 301 301 301 301 301 301 301 301 301 301 301 301 301 301 301 301 300 300 299 299 298 297 297 297 297 297 296
295 295 296 297 298 299 299 299 299 298 298 298 299 300 300 299 299 301 302 301 301 301 300 299 300 300 300 300 300 299 299 299 299 298 299 299 299 299 299 299 298 297 297 297 297 297 296 297 298 297 295 296 297 297 296 296 297 298 299 300 299 298 298 299 299 299 300 300 301 301 301 300 300 300 300 300 300 300 299 299 299 298 297 297 297 297 296
295 295 296 298 299 299 300 300 299 298 297 297 298 299 299 299 300 301 301 301 301 301 300 300 300 299 298 299 299 299 299 299 299 298 298 298 298 298 298 298 298 298 297 297 296 296 296 297 297 297 296 296 296 296 296 297 297 297 298 298 297 297 297 297 297 298 298 299 299 300 300 300 300 299 299 299 299 299 299 299 299 298 298 297 297 297 297
294 296 297 298 299 301 301 301 298 297 296 297 299 300 300 300 301 301 300 301 301 300 300 300 300 298 298 299 299 299 299 299 298 298 298 297 297 297 297 297 297 297 297 296 295 296 296 296 295 296 296 296 296 296 297 297 297 297 297 297 297 297 297 297 297 298 298 298 298 299 299 299 299 299 298 298 298 298 298 298 298 298 298 298 297 297 297
296 298 299 300 300 301 301 299 297 297 298 299 301 301 300 300 301 300 299 299 300 299 299 300 299 298 299 299 299 299 299 298 299 298 298 297 298 298 297 296 296 297 296 296 296 296 296 295 294 295 296 297 297 297 297 297 297 297 297 297 297 297 297 297 297 297 297 298 298 298 298 298 298 298 298 298 298 298 298 297 297 297 297 297 297 297 297
300 300 300 300 299 299 299 298 297 299 299 300 300 299 299 299 300 299 299 299 299 299 299 299 298 298 299 300 300 299 299 299 299 299 298 298 298 297 297 296 296 297 297 296 296 296 297 296 294 295 296 297 297 297 297 297 297 297 297 297 297 297 297 297 297 297 297 298 298 298 298 298 298 298 298 298 298 298 298 297 297 296 296 296 296 297 297
300 300 299 299 298 299 299 298 299 299 299 299 299 299 298 298 298 298 299 300 299 298 298 299 299 298 299 299 299 299 299 298 298 299 298 298 297 298 298 296 295 296 297 296 295 295 296 296 295 295 296 297 297 297 297 297 297 297 297 297 297 297 297 297 297 297 297 298 298 298 298 298 298 298 298 298 298 298 297 297 297 297 297 297 297 296 297
300 299 298 298 299 299 299 299 299 299 298 299 299 298 297 297 298 298 298 298 298 298 298 299 299 299 299 299 299 299 299 298 298 299 299 298 296 297 297 296 296 297 297 295 294 296 297 298 297 296 296 296 297 297 297 297 297 297 297 297 297 297 297 297 297 297 297 297 297 297 297 297 298 298 297 297 298 297 297 297 297 297 297 297 297 296 296
299 298 298 299 299 299 299 298 298 298 298 299 300 298 297 297 297 297 297 297 297 298 299 299 299 299 298 298 298 298 298 298 298 298 298 297 296 297 298 298 297 297 295 294 295 296 298 298 298 297 296 296 297 297 297 297 297 297 297 297 297 297 297 297 297 297 297 297 297 297 297 297 297 297 297 297 297 297 297 297 297 297 297 296 296 296 296
299 299 299 299 298 298 298 298 297 297 298 299 299 299 299 298 298 297 298 298 298 299 299 299 299 299 299 298 298 298 298 298 298 298 297 296 296 297 299 298 296 294 294 295 295 295 295 295 296 296 296 297 297 297 297 297 297 297 297 297 297 297 298 297 297 297 297 297 297 297 297 297 297 297 297 297 297 297 297 297 297 297 296 296 296 296 296
299 299 299 299 297 297 297 298 297 297 298 298 299 300 300 300 299 299 299 299 299 299 299 299 299 299 299 298 298 298 298 298 298 298 296 295 296 297 296 295 294 293 294 295 295 294 295 296 296 296 297 297 297 297 297 297 297 297 297 297 298 298 298 297 297 297 297 297 297 297 297 297 297 297 297 297 297 297 296 296 296 296 296 296 296 296 296
299 299 298 299 298 296 296 298 299 298 297 297 298 299 300 299 299 299 299 299 299 300 300 299 299 299 298 297 298 298 298 298 298 296 295 296 297 296 294 294 295 295 295 296 296 296 296 297 297 297 297 297 297 297 297 297 297 297 298 298 298 298 298 297 297 297 297 297 297 297 297 297 297 297 297 297 297 297 296 296 296 296 296 296 296 296 295
299 297 297 298 298 296 296 298 298 298 296 296 297 298 298 299 299 299 299 299 299 300 300 299 299 299 298 297 298 298 298 298 297 296 295 296 297 295 294 295 297 296 296 297 298 296 296 296 297 297 297 297 297 297 297 297 298 298 298 298 298 297 297 297 297 297 297 297 297 297 297 297 297 297 297 297 297 297 297 297 297 296 296 296 295 295 295
298 297 298 298 297 296 296 297 297 296 296 297 297 298 299 299 299 299 299 299 299 300 299 299 298 299 298 297 297 297 296 297 297 296 295 295 296 296 296 297 296 294 294 296 297 296 296 297 297 297 297 297 298 297 297 297 298 297 297 297 297 297 297 297 297 297 297 297 297 297 297 297 297 297 297 297 297 297 297 297 297 297 297 296 296 296 296
298 298 298 297 296 295 295 296 297 297 297 297 297 298 299 299 299 298 299 299 299 299 299 299 299 299 298 296 297 297 296 296 297 296 295 296 297 297 296 297 297 295 294 294 295 296 297 297 297 297 297 297 297 297 297 297 297 297 297 297 297 297 297 297 297 297 297 297 297 297 297 297 297 297 297 297 297 297 297 297 297 297 297 296 296 296 296
298 298 297 297 297 296 296 297 298 298 297 297 298 298 299 299 299 298 299 299 299 299 299 299 299 297 296 296 298 298 297 295 296 296 296 297 296 295 295 297 297 297 295 294 295 297 298 298 297 298 297 297 297 297 297 297 297 297 297 297 297 297 297 297 297 297 297 296 296 297 297 297 297 297 297 297 297 297 297 297 297 297 297 297 296 296 296
298 298 298 298 298 298 297 298 299 299 298 298 298 298 299 299 299 298 298 298 298 299 298 297 297 297 297 297 298 298 296 295 295 296 296 295 294 294 296 297 296 296 296 297 297 297 298 298 297 297 297 297 297 297 297 297 297 297 297 297 297 297 297 297 297 297 297 297 297 297 297 297 297 297 297 297 297 297 297 297 297 297 297 297 297 297 297
299 298 298 297 297 297 298 298 299 298 298 298 298 298 299 299 298 298 298 298 298 298 298 296 296 297 298 298 296 295 296 296 296 296 295 294 293 295 297 297 296 296 298 298 297 297 298 297 297 297 297 297 297 297 297 297 297 297 297 297 297 297 297 296 296 296 297 297 296 297 297 297 297 297 297 297 297 297 297 297 297 297 297 297 297 297 297
Wind_Speed
5 5 5 5 6 8 10 11 11 8 5 2 2 4 6 6 4 5 9 8 4 1 2 1 1 0 0 1 2 3 2 1 2 3 2 1 1 1 1 1 1 1 1 1 1 2 2 0 1 1 1 2 2 8 13 7 4 1 2 1 0 1 1 1 1 1 2 2 2 2 1 2 2 2 2 1 1 1 2 2 1 3 3 2 2 3 1
4 4 3 4 6 8 10 11 11 8 4 1 3 6 9 10 8 7 10 8 3 1 1 0 1 1 1 2 1 1 2 2 2 2 1 2 1 0 1 1 1 1 1 1 1 2 2 1 2 1 1 2 4 10 17 13 3 2 0 2 2 1 0 0 1 0 1 2 2 3 2 1 1 1 2 2 2 1 0 1 1 2 2 2 3 3 1
3 2 2 4 6 8 10 10 10 6 2 1 4 9 11 9 7 5 8 7 2 1 1 1 0 0 1 2 2 2 1 1 2 2 1 2 0 0 1 1 1 2 1 1 1 2 2 1 3 3 2 3 4 9 17 16 9 10 5 3 5 2 0 1 2 3 4 3 2 2 1 1 1 1 4 6 5 3 1 1 2 4 2 2 3 2 1
2 1 2 4 6 8 10 10 8 4 1 3 5 10 10 6 2 2 4 4 1 1 1 1 1 1 0 0 1 2 1 2 4 1 1 3 1 0 2 1 1 2 3 2 2 3 2 1 3 4 3 3 3 8 13 13 13 19 12 2 5 3 1 1 2 2 2 1 0 1 1 1 1 3 6 7 7 5 2 2 2 2 4 3 2 2 4
1 0 1 4 5 8 10 8 7 4 2 5 8 10 7 3 2 2 2 2 0 1 2 1 2 1 1 1 1 2 2 2 3 1 1 3 3 1 2 3 2 2 3 2 1 3 2 1 3 3 3 3 4 7 8 8 16 23 14 2 2 3 2 2 3 3 1 2 2 2 1 2 2 4 6 8 9 6 1 1 2 1 2 3 1 3 5
1 1 1 4 5 8 9 7 5 5 4 7 8 7 4 2 3 4 4 3 0 1 1 2 3 2 1 1 1 1 2 2 2 1 2 3 3 1 1 4 4 2 1 0 1 3 2 3 3 2 3 3 3 5 4 5 13 17 11 4 2 3 3 2 3 4 2 0 1 1 5 5 5 7 8 9 10 9 6 3 4 4 2 1 3 6 4
2 2 1 3 5 7 8 6 4 4 5 6 6 4 3 4 5 4 5 4 2 3 4 4 4 3 1 1 1 1 2 3 1 1 1 2 4 2 1 4 4 2 1 1 2 3 2 2 3 2 4 3 2 3 1 3 8 9 6 5 2 2 2 3 4 5 4 3 3 2 5 5 6 10 10 8 8 9 8 6 6 5 3 2 5 8 5
3 3 2 3 5 6 7 6 3 3 3 4 4 4 4 5 5 5 6 6 5 4 3 3 3 2 2 1 1 0 1 2 2 1 0 1 2 2 2 3 3 1 1 1 2 2 2 1 1 2 3 2 1 2 1 1 4 6 4 4 5 1 2 3 3 4 3 4 5 4 3 5 7 11 12 10 8 8 8 7 6 5 3 4 6 7 5
4 3 2 3 5 5 6 6 4 2 3 3 4 4 5 6 6 8 8 4 4 2 2 2 1 1 1 0 0 0 0 2 2 1 0 0 0 1 1 2 1 1 1 2 2 1 1 3 5 5 4 4 3 2 0 1 3 5 3 3 5 3 2 3 2 3 3 3 4 3 2 3 5 10 13 12 8 5 5 4 4 4 2 3 5 3 3
5 4 2 2 4 5 6 6 4 3 2 2 2 4 6 6 7 9 7 2 3 2 1 1 1 1 0 1 1 1 1 2 1 1 1 0 0 1 1 1 1 1 1 1 0 3 5 7 8 8 9 9 8 6 4 5 4 3 1 0 2 2 2 3 2 3 3 1 1 1 2 3 1 5 8 8 6 5 4 2 3 6 4 2 2 2 3
6 4 3 2 3 5 6 6 5 3 2 1 1 3 4 5 7 8 6 3 1 1 1 1 1 1 1 1 1 1 1 3 1 1 1 1 1 2 1 2 1 1 1 1 6 10 8 7 7 6 6 7 6 4 2 2 4 3 2 0 2 1 1 1 0 2 2 2 3 2 3 2 1 1 5 5 4 6 5 2 5 7 3 3 4 5 6
6 5 3 2 3 5 5 6 5 4 2 1 1 2 3 5 7 7 4 3 1 0 1 1 1 1 1 0 0 2 2 2 2 2 2 2 2 3 1 2 1 0 2 7 12 10 4 3 5 4 2 2 3 3 2 6 5 2 1 1 1 2 2 1 1 2 3 1 1 2 2 1 2 2 5 5 3 6 4 2 6 8 4 5 7 7 9
7 5 4 2 3 4 5 6 6 5 4 2 2 3 4 5 7 5 4 4 1 0 1 1 1 1 1 0 1 3 3 3 4 4 5 4 2 3 2 1 1 4 9 12 10 2 2 1 2 1 1 1 1 3 2 7 7 6 4 2 2 3 2 2 1 2 2 3 1 1 3 2 1 2 5 6 4 6 4 1 5 9 6 4 7 8 10
7 6 5 3 2 3 4 6 7 7 6 4 4 4 4 5 6 5 4 4 2 1 1 1 1 1 0 0 2 3 3 3 4 2 4 4 4 3 2 3 5 8 11 9 2 3 2 1 1 1 1 1 1 1 2 3 2 5 8 6 3 4 2 3 2 1 1 3 3 3 3 2 3 3 5 5 3 5 4 1 3 8 6 4 8 9 10
7 7 6 4 2 2 4 5 7 8 7 7 6 6 6 4 4 3 4 5 4 2 1 1 0 1 1 1 2 2 2 3 3 1 2 4 5 3 3 5 7 8 7 3 1 1 1 1 1 1 1 1 1 0 2 2 1 2 6 5 2 2 1 1 1 1 0 3 4 2 2 2 3 5 5 4 5 5 3 2 1 5 6 4 8 10 11
8 8 7 5 3 2 3 4 6 7 7 8 8 7 6 4 4 4 4 6 6 2 1 2 1 1 1 2 2 2 1 1 2 2 2 2 3 3 5 6 5 4 2 1 2 2 2 1 1 0 1 1 1 0 1 2 2 2 5 5 5 6 4 2 2 2 2 2 4 2 2 2 4 8 8 9 7 3 2 2 1 5 7 4 6 9 11
9 8 7 6 4 2 2 3 5 6 7 7 8 8 7 5 5 4 5 9 9 4 3 4 3 2 2 1 1 2 1 1 1 1 1 2 4 7 9 7 5 3 2 2 1 2 3 2 1 1 1 1 2 1 1 2 3 5 8 8 7 8 6 4 4 3 3 3 4 3 2 2 5 10 12 12 6 1 3 1 2 5 5 5 7 7 8
9 9 8 7 5 4 3 3 5 6 6 6 6 7 7 6 5 4 8 12 11 5 5 8 7 5 4 3 2 2 1 2 1 0 1 2 2 6 10 8 5 5 4 1 0 2 3 2 1 2 1 1 2 1 1 2 2 3 5 4 3 5 4 3 4 4 3 4 4 3 2 2 6 12 14 11 3 3 0 2 2 4 4 8 7 5 5
9 10 9 7 6 4 4 3 4 5 6 6 5 6 6 6 5 5 8 13 14 8 8 11 11 9 9 8 7 6 4 4 2 1 0 0 3 7 8 4 3 4 3 1 1 1 2 1 1 2 1 2 2 1 1 2 2 2 2 2 3 3 3 3 3 2 2 3 4 3 3 2 10 16 14 8 2 1 2 5 2 1 7 10 8 6 6
9 10 9 8 6 5 4 4 4 4 6 7 7 9 10 10 8 6 9 17 22 16 10 11 12 12 12 12 10 8 7 5 4 2 1 1 7 8 2 1 3 4 2 2 2 1 1 2 1 1 2 1 1 1 2 2 2 2 3 2 3 3 1 2 3 2 1 3 4 3 2 4 16 17 8 5 5 2 3 5 2 7 10 11 10 9 10
10 10 9 8 6 5 4 4 3 4 6 7 8 12 14 13 13 12 12 18 21 16 9 10 11 11 11 12 12 11 9 7 6 5 3 4 7 5 1 1 3 2 0 1 2 1 1 1 1 2 2 1 0 1 1 2 4 4 2 2 3 4 1 2 1 2 2 3 4 3 2 7 14 12 4 4 7 4 3 2 6 10 11 12 13 13 14
10 10 9 8 6 5 5 5 5 5 6 7 9 11 12 12 12 12 12 15 18 15 12 11 11 12 12 12 13 14 13 11 10 9 7 5 6 6 3 1 1 2 1 0 2 2 1 1 2 2 2 2 2 2 1 1 3 3 3 2 4 4 3 4 4 4 4 5 4 3 3 6 9 7 4 4 5 4 4 7 10 10 11 14 16 16 19
10 10 9 8 7 6 6 6 6 6 6 7 8 8 9 10 12 13 15 18 20 17 13 11 11 12 13 13 14 14 13 11 11 11 10 5 4 5 5 2 2 2 2 1 2 1 2 2 2 2 3 2 2 3 4 4 3 3 4 4 4 3 2 3 4 4 5 8 8 6 6 8 9 8 7 7 7 8 8 11 12 12 12 14 16 20 22
9 9 8 8 8 7 7 6 6 6 6 8 8 7 8 10 13 14 15 15 14 13 11 11 11 11 11 12 13 13 13 11 10 10 11 9 5 4 5 5 4 3 4 5 5 5 6 4 1 2 3 2 2 2 4 5 3 1 2 3 3 4 3 3 2 1 2 5 6 6 7 8 9 9 11 12 13 13 13 15 16 15 14 15 18 22 23
9 8 8 8 7 7 7 6 5 5 6 7 8 8 9 11 12 10 8 8 9 8 6 7 10 10 9 11 13 14 14 13 11 9 9 10 9 7 7 8 8 7 7 8 8 8 8 5 2 4 4 2 2 2 2 3 2 1 2 3 2 2 3 3 3 3 3 3 3 5 8 10 10 11 13 14 17 17 17 18 18 18 17 18 19 20 21
8 8 7 7 6 6 7 6 5 5 6 7 9 9 8 10 10 6 5 9 12 11 5 4 7 9 9 11 14 15 15 14 12 10 9 9 10 8 8 11 13 13 13 14 14 14 11 5 2 3 4 2 2 2 2 3 2 1 3 4 3 2 2 1 2 4 5 4 4 5 8 9 9 12 16 17 19 19 19 19 19 19 19 19 17 16 16
8 7 6 6 6 6 6 6 6 6 6 7 7 7 8 8 7 5 7 9 9 7 4 4 7 10 12 14 14 14 14 13 11 10 10 10 9 7 7 9 12 13 14 15 16 15 12 7 4 4 4 4 5 4 3 3 2 3 5 5 5 3 3 1 1 5 4 3 4 5 4 5 5 9 15 18 19 19 18 18 17 16 16 15 15 14 13
8 7 6 6 6 5 5 6 6 6 6 6 6 6 7 7 7 7 7 5 4 7 9 8 8 9 11 13 13 13 13 12 11 11 12 12 10 8 7 7 7 9 11 12 11 9 7 5 4 3 3 4 5 3 2 2 3 5 5 6 7 4 2 0 3 6 5 3 6 6 5 6 8 10 13 15 15 14 14 14 13 12 11 11 12 12 11
8 7 7 6 5 5 5 6 6 7 7 7 6 6 7 7 7 8 6 5 9 15 15 11 8 6 7 10 11 11 11 12 12 13 14 14 14 13 12 12 13 15 16 17 14 9 6 5 5 4 4 4 3 2 1 2 4 5 5 7 7 6 5 5 6 7 6 6 7 7 7 9 10 10 10 10 9 10 11 11 11 11 10 9 9 9 7
8 8 7 6 5 5 5 6 7 8 7 7 7 7 6 6 6 7 7 9 13 14 11 7 5 4 7 11 12 11 10 11 12 14 16 17 17 17 16 16 18 18 19 19 15 8 5 6 6 6 7 6 3 2 2 2 4 4 6 9 10 10 9 10 10 8 8 8 7 7 9 11 11 9 8 8 8 10 11 11 12 11 11 9 8 8 8
9 8 7 6 6 6 6 7 8 9 8 7 6 5 4 5 5 7 10 11 11 9 8 8 5 4 5 9 11 11 10 10 11 13 16 18 18 18 18 18 19 20 20 19 16 9 5 5 5 5 7 8 6 3 1 3 5 4 6 9 11 12 12 12 11 10 9 8 8 9 11 11 10 8 7 8 9 9 9 10 11 10 9 8 7 7 8
9 8 7 7 6 6 7 8 9 9 8 6 4 4 5 6 7 9 11 11 9 8 8 7 4 1 1 4 8 10 9 9 10 12 14 14 16 17 18 18 18 18 17 15 11 7 5 5 7 8 10 11 8 3 2 4 5 3 5 8 10 11 11 10 9 9 9 8 8 8 9 9 9 7 6 7 7 6 7 8 8 7 7 6 5 5 5
9 8 8 8 8 8 8 9 9 10 8 6 6 7 8 8 9 11 12 10 9 8 7 5 2 0 0 3 6 8 8 8 10 12 12 12 13 14 15 16 16 15 14 11 7 5 5 7 8 9 11 11 7 3 2 4 4 3 4 7 8 9 9 8 6 7 8 7 6 4 3 6 7 5 4 5 6 4 4 5 5 4 4 4 3 3 4
9 9 9 10 10 9 9 9 9 9 8 7 8 9 9 9 9 11 11 10 8 7 5 4 3 1 1 2 4 7 8 7 8 9 9 10 12 12 11 12 12 11 12 11 7 5 6 7 7 5 6 8 6 3 2 4 5 5 5 6 7 6 6 6 4 4 4 3 4 5 3 2 5 4 3 5 5 5 4 5 4 2 2 2 3 3 3
10 11 12 12 11 11 10 10 9 8 8 8 8 8 8 8 9 10 10 9 7 4 3 4 3 1 1 1 2 5 7 8 8 7 6 8 11 11 8 8 8 7 7 8 6 4 5 6 5 3 2 4 4 3 2 2 5 7 8 8 8 8 5 3 2 1 4 3 3 4 3 0 3 4 4 4 5 6 6 7 6 5 4 3 4 4 3
12 13 14 14 13 11 11 10 8 7 7 8 8 8 8 8 9 9 8 7 5 4 3 4 3 1 1 1 1 3 5 6 6 7 5 5 7 9 8 6 5 4 5 6 5 4 5 6 4 2 2 3 2 1 1 2 5 9 10 9 9 9 7 5 4 3 5 7 7 6 4 3 3 3 3 4 6 7 8 8 8 8 7 7 6 5 4
14 16 16 15 13 11 10 9 7 7 8 10 11 10 10 10 9 8 7 6 5 5 5 6 3 1 1 2 1 2 3 3 3 5 6 5 4 7 8 6 2 2 4 4 3 4 6 6 5 2 2 3 1 0 2 6 10 12 12 11 10 10 9 9 9 6 4 4 5 5 5 6 4 3 2 4 5 6 8 10 11 12 11 10 8 7 6
17 17 17 15 12 9 8 7 7 8 11 13 13 11 9 8 7 6 5 5 5 5 5 5 3 2 2 3 3 3 3 3 3 3 5 4 3 3 5 4 2 2 2 1 3 4 5 4 3 2 2 2 3 5 9 12 14 14 13 12 11 10 9 9 9 9 7 4 3 3 4 6 6 4 2 2 4 7 8 8 10 13 14 13 12 11 9
18 17 16 12 9 7 8 9 11 12 13 12 10 7 5 4 3 2 3 4 4 4 5 4 3 2 2 2 3 4 4 3 2 2 2 3 3 2 2 2 2 3 2 1 2 4 3 2 2 2 1 2 3 7 11 12 13 12 11 11 10 10 9 9 8 8 8 6 3 3 4 6 5 3 3 3 6 8 8 6 5 6 9 11 12 13 12
18 16 13 9 8 9 11 13 13 12 10 7 5 4 4 4 3 1 2 3 2 3 3 3 4 5 5 4 3 4 4 4 3 3 2 3 3 2 2 2 2 2 1 1 3 3 2 1 1 1 2 1 2 7 10 11 11 10 9 9 9 9 9 8 7 7 8 7 4 2 4 5 3 1 3 6 8 8 8 7 5 3 3 4 6 7 9
15 12 9 9 12 14 15 14 11 8 6 4 4 3 2 3 2 2 2 2 1 1 3 4 3 4 5 5 4 4 5 5 6 5 4 3 3 3 2 1 1 1 1 0 2 2 2 2 1 1 2 4 5 8 9 9 8 8 7 7 8 8 8 7 6 7 7 8 8 6 1 2 1 2 5 9 10 8 7 7 5 5 7 8 7 6 5
11 10 11 14 16 15 12 9 6 4 3 3 3 2 1 1 1 2 2 1 2 2 2 3 4 5 6 7 7 5 4 4 4 4 3 2 3 3 2 0 1 2 1 0 1 2 2 1 1 1 3 5 7 9 9 8 6 6 6 6 6 7 7 6 6 7 7 7 7 6 3 2 3 5 7 9 9 9 8 7 6 8 10 9 7 6 5
11 14 16 16 13 10 7 4 3 3 2 2 2 1 1 1 1 1 1 1 3 3 4 5 7 8 7 7 6 6 5 4 4 4 3 2 1 2 2 2 1 2 1 0 1 2 2 1 1 3 5 6 7 8 8 6 4 4 4 5 5 5 6 5 6 7 7 6 5 5 4 5 5 6 7 7 8 9 10 9 9 10 10 8 6 5 5
16 16 15 11 7 5 4 1 2 1 1 0 1 1 1 1 0 0 0 2 3 4 6 8 8 6 4 4 4 4 4 4 4 4 3 2 2 2 2 1 1 1 1 1 1 1 0 1 2 3 5 7 8 8 8 6 4 3 3 3 3 4 4 5 5 6 6 6 6 6 6 6 6 6 6 6 7 8 8 8 9 9 9 7 6 4 3
15 12 9 5 2 2 2 0 1 0 1 1 1 2 2 2 2 1 2 5 6 8 10 11 10 8 6 4 3 3 2 3 3 3 1 1 2 2 1 1 1 1 1 2 1 0 1 1 2 4 7 9 9 8 7 5 3 2 1 1 2 3 4 4 4 5 7 7 7 7 7 7 6 6 6 6 6 6 6 7 7 7 5 4 4 3 3
11 7 6 4 1 2 1 1 1 0 1 2 2 2 3 4 4 4 6 8 10 12 12 12 10 9 7 4 3 3 3 3 3 2 1 1 2 1 1 1 1 2 2 1 0 1 1 1 3 7 9 10 9 8 6 4 3 1 1 2 3 3 3 4 4 5 7 8 8 7 7 7 7 6 6 6 6 6 7 7 6 5 4 3 3 3 3
7 5 4 3 1 0 1 0 1 1 1 1 2 4 8 11 12 10 10 11 12 13 13 11 9 8 7 5 3 3 3 3 2 1 2 1 2 1 1 1 1 1 1 1 2 2 2 3 7 10 10 9 7 6 4 2 1 2 2 3 4 4 4 5 5 6 7 8 9 8 7 7 7 7 7 7 7 7 7 8 7 5 4 4 4 5 4
6 4 2 2 1 1 0 2 3 3 3 5 9 13 15 16 15 12 12 13 13 13 12 10 9 7 5 4 3 2 3 4 3 1 1 2 2 1 1 1 1 1 2 3 2 1 3 7 11 11 9 6 5 3 2 3 3 4 4 5 5 6 6 7 8 8 9 10 10 9 9 9 8 7 8 8 7 6 7 8 8 7 6 6 7 7 7
5 3 3 3 2 1 2 6 6 4 5 9 14 16 17 17 16 14 14 13 11 10 9 8 7 4 1 2 2 2 2 2 1 1 1 1 1 1 1 1 0 1 2 2 2 2 7 12 12 9 6 4 3 2 4 5 5 5 5 6 7 7 8 9 9 9 9 10 10 10 10 10 9 9 9 9 8 7 7 8 9 8 7 6 6 7 8
3 3 4 4 3 3 5 7 6 3 3 8 13 15 17 18 17 14 11 11 10 9 8 6 5 4 1 1 2 1 1 0 1 1 1 1 1 1 2 1 1 2 3 3 4 8 12 12 10 7 5 4 3 3 4 4 4 5 6 6 7 7 7 8 8 8 9 9 9 9 10 10 10 10 10 9 8 8 8 8 9 9 10 9 8 8 8
3 3 2 2 4 6 8 7 6 4 5 9 13 15 17 17 15 12 10 11 10 8 5 3 3 3 2 1 1 1 1 1 1 1 1 1 1 2 2 1 2 3 5 7 10 12 12 10 7 5 5 3 2 2 2 2 3 5 6 6 6 6 6 7 7 7 8 8 9 9 9 10 10 11 11 10 9 9 8 8 8 8 9 11 12 12 11
2 3 3 3 7 10 10 8 9 11 12 14 15 16 15 14 13 12 11 10 7 4 4 3 3 2 1 1 1 2 2 2 1 1 0 1 2 2 1 1 4 8 11 12 12 11 9 7 5 3 2 2 2 2 2 3 4 5 6 6 6 6 6 7 8 7 7 8 9 9 9 9 9 10 10 10 10 10 10 9 8 7 8 9 11 12 13
Wind_Direction
322 313 309 311 320 329 328 332 340 350 356 342 171 154 145 133 109 138 158 164 163 72 32 39 12 342 315 315 250 246 287 276 308 336 344 315 278 255 269 255 244 225 233 310 326 331 314 329 45 296 228 82 358 355 9 357 274 252 99 120 109 140 115 107 221 296 311 270 157 137 155 147 124 59 44 27 295 281 255 252 182 163 171 153 201 232 184
321 310 308 313 323 331 328 332 339 346 359 53 147 137 124 111 98 124 154 162 155 50 91 109 5 308 328 349 322 281 251 229 308 323 332 349 323 314 329 261 298 317 251 286 303 327 342 29 48 354 237 62 0 5 25 32 0 327 107 177 170 166 5 91 180 223 190 194 193 190 174 98 77 42 25 10 13 31 171 119 135 206 187 170 223 226 132
319 306 310 320 329 332 330 332 339 345 7 129 142 134 126 112 91 110 149 162 153 39 141 153 109 119 355 4 6 350 262 236 328 296 291 346 280 242 327 278 331 342 310 300 328 20 20 0 25 13 321 353 355 4 26 39 22 342 326 174 153 153 158 142 206 230 218 194 198 219 221 0 319 23 17 18 28 14 285 160 191 220 180 161 225 215 114
311 294 318 330 335 335 333 334 343 354 165 172 151 143 136 122 99 105 147 180 234 25 141 142 122 138 47 31 13 6 340 327 343 313 280 357 17 53 350 335 346 4 357 357 24 29 9 308 30 24 338 334 333 347 15 43 21 348 331 168 131 108 83 93 148 208 249 239 168 298 332 318 287 356 8 14 14 353 298 199 209 193 153 176 226 128 142
303 98 348 340 343 340 337 339 354 20 139 172 160 151 142 124 139 140 141 184 249 72 120 119 96 110 145 123 4 357 343 328 350 29 12 6 17 53 29 19 35 31 5 7 21 0 355 27 27 11 346 321 295 333 5 44 15 351 330 284 87 96 122 107 99 94 36 277 266 288 30 74 53 19 12 12 11 4 0 215 327 351 172 195 182 142 160
170 131 6 350 351 344 342 346 9 40 100 157 160 151 141 128 139 144 148 165 178 83 113 112 98 92 82 91 354 5 13 0 4 357 334 3 14 21 58 35 39 44 352 23 16 348 9 42 8 343 357 332 301 340 10 59 21 356 324 303 29 113 135 154 135 112 109 98 315 100 105 92 67 54 37 23 24 32 52 49 354 341 305 340 129 150 151
165 139 52 5 359 349 348 354 15 51 88 140 156 148 132 126 124 133 141 131 90 106 125 124 110 83 30 29 33 53 33 11 351 270 301 9 13 12 35 18 17 11 298 120 48 8 29 43 0 346 357 342 328 354 0 96 35 5 322 314 345 108 125 164 151 116 93 56 27 77 115 103 65 52 43 34 42 50 55 47 13 10 37 68 123 134 96
164 138 86 19 6 1 357 1 24 65 82 120 147 153 151 144 137 136 127 101 71 87 112 123 117 50 11 48 40 157 135 3 333 264 259 22 2 15 26 357 358 8 350 69 95 59 39 18 307 324 345 342 5 358 269 185 3 353 338 326 317 308 143 163 146 117 93 48 33 32 73 106 81 52 37 28 39 51 44 32 13 13 65 102 129 133 87
159 143 101 35 14 15 11 9 28 68 93 107 118 138 153 157 154 147 136 99 23 28 65 79 117 43 13 82 1 223 171 344 316 272 302 75 28 17 348 332 20 102 12 63 127 165 235 249 256 266 283 295 312 332 278 213 319 344 1 332 325 348 124 156 173 154 135 57 48 48 63 123 91 46 25 15 21 28 4 2 9 352 2 132 145 143 110
159 152 119 53 19 29 30 23 27 48 97 114 100 127 145 153 157 154 147 110 3 21 76 52 111 127 125 213 255 282 308 326 315 282 338 351 146 325 270 200 120 11 344 82 314 299 284 277 285 277 264 273 288 293 275 247 258 308 345 352 353 3 120 150 183 176 147 54 25 145 181 193 120 27 4 350 355 356 333 334 12 349 327 186 164 52 88
159 154 134 70 30 38 41 36 36 45 85 107 93 131 149 157 160 158 145 114 37 46 135 46 82 135 157 215 238 218 289 326 343 102 356 333 327 320 264 171 135 335 195 247 321 318 300 296 326 318 259 260 279 292 304 260 256 259 247 250 52 73 108 82 179 174 131 7 322 204 187 209 176 19 345 333 342 1 5 28 9 353 357 90 71 51 60
162 157 147 101 46 42 42 45 47 52 76 90 111 160 171 169 167 164 142 120 106 2 120 77 87 116 84 35 224 228 252 297 293 247 258 280 315 315 251 167 115 1 270 303 317 319 295 302 351 346 260 226 227 229 68 55 33 18 186 236 255 149 140 95 85 90 105 103 295 187 149 28 171 171 355 350 345 357 6 59 29 13 25 73 76 73 72
164 161 152 125 59 41 37 41 46 53 71 94 132 159 173 175 174 171 136 115 125 261 104 94 79 87 64 53 300 279 272 287 290 262 241 238 273 296 260 211 290 298 299 307 317 330 138 62 358 291 306 34 207 239 19 42 27 21 55 74 256 215 157 122 98 61 119 142 53 101 115 53 137 144 11 5 1 355 349 73 37 18 13 64 86 91 99
164 162 154 140 88 47 34 34 40 48 62 86 112 128 144 157 164 172 149 118 88 356 109 129 105 80 103 314 323 312 312 331 325 267 219 224 246 263 286 310 304 300 301 305 320 122 121 63 72 193 282 0 206 256 4 44 37 14 31 33 305 250 187 127 93 31 121 119 78 90 138 104 62 37 12 5 342 336 331 286 11 14 20 88 113 114 114
164 163 155 148 126 60 38 35 38 44 59 80 97 106 107 113 130 167 173 143 123 81 58 68 237 208 180 33 5 347 344 352 345 303 249 254 246 250 319 330 316 306 300 297 123 118 107 115 133 180 198 219 212 190 2 14 94 54 35 24 324 286 235 155 128 56 68 122 111 108 142 103 28 355 350 346 317 304 291 250 327 12 24 82 129 130 125
165 162 154 149 141 94 56 51 47 48 63 75 81 83 79 81 101 117 138 134 127 115 33 41 50 165 140 86 49 33 31 347 333 312 286 283 278 306 337 346 335 320 309 105 90 71 74 111 160 195 169 286 321 109 49 356 346 4 10 15 26 30 30 61 102 87 66 99 104 84 86 84 2 339 328 326 324 296 235 211 19 1 8 65 129 137 135
164 160 152 147 141 119 90 76 64 60 69 75 75 75 70 74 99 122 132 119 106 80 52 63 59 80 111 93 44 42 43 356 352 354 325 325 321 330 344 2 12 9 47 120 114 68 81 104 122 87 72 354 337 329 21 19 7 348 348 357 21 29 24 33 64 81 85 89 92 74 74 57 354 336 324 324 333 162 189 189 36 1 11 93 120 128 130
162 157 152 146 137 123 110 94 79 74 80 85 82 76 69 67 84 122 134 119 105 76 68 74 68 73 83 65 51 68 34 0 7 257 290 301 305 326 337 349 9 17 30 64 128 77 85 95 94 88 67 0 353 330 330 17 30 0 339 334 11 33 26 25 54 76 73 84 103 94 71 36 343 331 324 321 302 176 170 359 346 350 55 101 104 102 114
159 155 152 147 136 126 115 105 95 86 88 93 87 79 71 68 87 135 141 118 108 101 92 84 77 78 78 69 70 74 52 26 20 0 295 352 331 325 324 335 4 359 6 51 91 78 83 85 77 83 74 28 18 29 23 15 8 359 345 340 12 33 31 16 27 47 41 75 103 97 103 42 346 333 326 332 335 175 21 0 316 100 96 94 81 77 96
155 153 153 149 142 134 121 114 114 104 98 99 96 90 83 77 86 123 139 119 110 107 102 92 85 79 74 66 63 61 48 33 24 21 141 309 332 331 316 123 1 346 354 73 72 62 85 104 125 105 81 69 111 137 97 73 61 29 15 31 25 6 5 45 27 8 34 71 68 68 103 0 347 341 336 6 14 339 333 351 55 115 106 94 82 81 98
151 151 153 152 147 139 127 118 125 132 118 110 110 106 96 86 88 102 113 113 109 106 102 97 87 75 68 60 55 51 42 32 22 7 340 325 343 357 128 192 347 357 48 54 66 90 91 104 119 109 96 86 161 158 149 111 84 52 25 71 43 3 358 102 39 337 23 63 55 51 31 338 347 356 8 354 346 328 314 30 99 110 108 102 95 91 102
149 150 152 154 150 136 125 116 122 139 135 120 121 123 107 88 90 104 108 105 104 103 103 100 88 76 72 64 54 48 39 30 26 16 3 353 8 33 70 256 347 66 107 61 94 103 95 111 109 96 89 65 58 86 82 68 73 38 359 24 47 24 35 83 71 49 60 71 69 63 36 2 2 20 29 0 5 35 96 115 112 109 113 113 107 104 110
146 147 146 145 140 126 116 110 111 127 139 131 130 137 123 101 102 113 113 105 101 98 96 95 92 85 76 63 50 43 36 30 25 19 16 15 17 35 44 32 32 57 37 43 97 112 97 105 104 85 81 55 44 75 71 61 62 37 20 44 57 38 35 85 80 81 84 74 62 57 47 31 30 45 55 64 77 86 100 109 107 108 117 120 116 115 116
145 145 140 136 132 119 111 106 99 108 133 138 133 135 135 127 122 118 112 106 101 96 88 84 84 80 67 52 44 40 37 36 29 23 27 34 34 35 39 40 54 69 65 75 98 109 102 98 100 93 84 32 353 73 73 64 64 44 47 67 65 44 47 71 72 76 108 76 47 35 46 46 47 61 70 76 85 90 93 100 105 110 115 118 119 120 118
153 148 142 138 133 121 113 110 97 97 119 139 144 141 136 137 137 127 111 104 104 103 95 76 73 74 66 53 48 44 39 35 33 33 39 42 46 55 61 63 72 81 82 88 97 98 91 85 86 95 84 19 357 48 57 61 64 21 53 67 51 32 44 51 51 53 76 81 50 51 70 70 68 78 83 85 89 91 92 95 99 103 105 110 116 117 116
159 153 145 139 135 127 121 119 113 108 111 126 146 156 154 148 148 140 121 113 104 97 97 87 82 81 71 58 54 49 40 34 35 41 46 44 44 54 70 78 83 86 86 87 87 85 83 77 59 81 76 41 37 54 66 80 84 74 70 53 357 353 44 32 63 85 87 89 102 104 91 78 74 89 99 102 101 100 100 99 98 99 102 107 111 112 112
163 158 151 144 140 135 130 129 126 116 103 106 129 154 164 165 165 153 136 126 105 86 94 112 98 85 70 61 59 54 48 46 45 46 49 45 39 51 79 91 93 91 87 83 80 78 79 76 63 61 71 83 80 67 65 88 90 78 67 31 353 30 96 129 108 99 93 108 151 153 114 87 98 113 114 114 112 109 108 107 104 103 103 104 109 114 116
167 162 159 155 151 143 137 138 140 130 114 104 107 130 152 165 172 162 152 142 122 125 130 123 108 92 73 62 60 60 59 61 60 59 60 56 51 63 92 110 106 98 93 88 80 70 66 76 83 70 83 101 89 59 42 86 77 68 53 12 358 31 83 153 87 87 85 123 153 151 119 114 134 138 129 124 122 118 114 111 110 108 103 97 102 114 128
170 168 166 163 161 154 145 144 149 147 136 122 112 121 136 146 157 160 154 134 129 130 124 108 92 81 65 59 62 66 67 69 69 68 67 66 66 75 91 100 98 96 96 93 88 76 66 80 84 66 64 82 85 61 57 66 66 61 36 14 23 52 68 73 85 90 92 110 126 125 116 126 142 145 137 130 125 120 114 110 107 105 101 98 95 96 112
174 173 174 169 162 158 151 148 153 155 150 136 127 124 122 124 141 151 141 132 135 132 118 101 96 84 64 60 65 72 75 74 74 72 69 68 70 76 85 92 93 95 95 91 86 81 74 75 73 61 57 65 84 100 83 80 87 69 27 27 50 70 75 77 85 94 100 105 110 115 122 131 137 138 132 124 120 117 113 108 106 103 99 96 89 79 79
178 177 176 170 162 156 150 149 152 158 157 148 137 130 121 120 136 147 142 140 142 134 111 101 106 101 71 56 55 63 71 72 73 73 71 69 70 75 83 88 88 88 87 84 79 75 61 56 63 57 51 60 78 93 78 95 102 75 24 37 61 71 75 83 89 93 96 100 105 113 123 133 137 136 135 129 124 120 116 111 107 104 100 95 89 80 78
179 178 170 162 158 152 147 146 150 157 160 153 135 124 128 131 138 148 150 148 143 133 120 105 89 83 78 48 43 50 63 74 76 73 70 69 72 76 80 80 78 78 78 77 72 60 41 52 68 62 54 62 79 93 60 82 94 60 23 47 67 72 75 82 90 95 97 98 103 116 136 150 148 143 145 146 138 127 124 120 110 105 109 110 105 102 100
177 172 162 156 153 146 140 140 145 150 152 142 123 116 121 127 137 148 153 148 133 124 117 102 83 55 61 52 43 41 53 73 74 66 62 65 72 75 73 70 70 69 66 64 63 55 53 65 71 65 58 61 68 79 62 59 53 21 30 56 72 78 76 74 84 109 115 100 79 77 142 173 168 153 149 161 162 152 148 143 125 112 127 137 133 133 136
170 162 154 151 148 142 137 135 139 144 142 136 129 121 117 121 133 145 152 147 133 119 97 81 90 101 31 51 44 38 47 64 66 58 55 60 69 74 70 65 65 63 55 54 57 63 59 53 50 53 50 41 38 58 77 45 32 43 64 73 73 71 70 68 78 122 143 108 37 19 21 172 184 183 174 179 191 198 193 186 175 160 176 201 201 188 177
163 156 153 150 145 141 138 134 136 141 139 136 135 127 118 120 129 140 151 150 138 122 89 79 95 98 65 72 32 33 48 58 57 55 58 61 63 67 65 61 59 52 44 45 49 50 43 33 31 31 2 358 20 66 79 29 38 60 74 77 64 52 46 41 26 280 249 264 309 330 341 171 193 204 206 210 217 221 220 217 217 224 240 244 237 234 226
157 153 151 148 145 143 141 138 138 141 139 140 142 134 121 121 126 132 143 146 132 119 112 102 96 90 110 122 55 38 54 55 47 50 58 61 56 53 55 66 64 39 35 44 46 37 31 31 37 40 351 3 39 70 333 25 64 71 77 79 65 52 44 28 3 312 270 270 279 280 267 235 203 201 215 227 232 233 235 234 230 233 246 254 251 252 257
155 152 150 149 146 142 141 141 140 138 135 136 137 129 120 119 121 120 119 113 99 98 112 115 103 79 126 128 81 36 49 44 36 43 44 44 44 42 46 60 65 17 35 46 31 18 31 38 47 67 49 31 29 313 86 92 91 86 85 81 65 51 44 34 26 21 353 301 286 276 252 228 208 190 213 240 254 259 259 255 249 246 252 261 263 265 273
151 150 149 149 146 142 144 147 142 135 132 130 127 122 114 112 110 101 84 77 76 75 87 103 105 100 114 101 58 49 60 56 58 58 42 36 42 42 43 53 57 26 47 47 5 15 35 40 44 70 68 31 52 94 103 104 100 93 85 75 61 51 45 37 32 31 25 359 321 302 259 222 207 200 216 257 306 309 297 283 267 257 258 266 271 273 274
148 148 147 148 148 145 145 144 137 132 130 125 118 112 100 89 90 71 37 42 59 61 61 73 90 99 115 110 73 75 79 63 56 70 47 38 48 49 44 58 50 38 75 106 11 22 48 45 23 58 78 27 63 103 113 111 103 93 83 72 64 56 46 37 35 29 20 6 339 305 264 232 222 232 257 304 328 318 304 304 303 276 265 268 271 269 265
149 149 149 150 150 142 138 137 134 129 126 117 101 93 79 61 57 65 52 48 48 40 50 82 97 85 89 109 104 84 74 65 75 99 92 60 57 67 84 86 52 35 74 77 0 12 61 93 43 99 131 130 123 130 127 118 105 96 86 76 69 58 44 36 34 30 25 22 19 337 246 232 228 254 309 335 341 323 295 293 311 333 334 317 299 278 261
151 152 150 146 141 136 133 132 128 121 116 101 79 71 66 49 45 64 74 76 76 54 77 106 109 74 69 87 96 92 88 84 86 96 96 64 48 65 94 93 55 59 110 47 357 19 80 98 61 109 153 157 158 150 138 124 113 103 87 73 65 55 44 35 32 30 31 34 38 42 64 217 243 329 334 339 341 332 310 297 298 313 319 316 314 309 281
153 151 144 138 137 134 129 124 116 104 96 85 64 32 357 25 65 56 48 76 143 129 98 103 110 96 87 86 87 95 102 91 79 88 98 61 47 74 96 68 37 82 111 333 358 36 76 93 91 173 168 163 160 154 144 132 119 103 83 67 58 51 43 36 32 29 27 29 34 37 34 348 328 331 333 335 331 322 315 309 307 317 318 307 294 295 287
150 144 139 137 135 131 123 101 80 76 70 66 72 56 346 7 38 18 11 114 132 122 116 125 125 112 98 90 87 91 96 90 78 79 82 71 64 79 74 39 40 82 104 66 41 67 90 150 183 163 155 159 163 160 152 143 130 107 83 64 53 45 36 30 27 23 16 10 6 357 340 329 327 326 326 326 318 310 307 304 304 314 319 311 294 290 275
145 142 140 138 129 122 123 94 40 72 107 82 104 132 150 153 161 176 140 152 151 140 138 144 142 127 99 89 95 96 95 90 78 70 69 68 60 56 60 58 53 74 95 66 47 53 91 222 217 175 156 159 166 167 162 158 152 128 91 59 42 32 21 15 14 12 5 356 348 339 328 322 319 313 306 304 306 306 306 304 305 310 310 302 295 295 275
147 142 139 131 79 65 116 158 344 68 164 183 155 149 158 171 187 183 153 151 153 150 147 148 145 130 109 98 98 97 93 87 74 62 63 83 56 45 84 117 84 56 73 70 60 83 159 198 199 178 164 161 163 166 169 173 172 156 107 44 20 8 0 357 353 352 350 344 339 334 327 319 311 303 296 295 299 302 301 303 307 309 304 291 286 291 285
150 146 136 120 18 5 84 97 311 215 174 194 206 196 173 155 146 144 148 151 151 150 149 149 145 131 112 95 88 85 83 91 86 47 0 85 86 73 115 129 90 69 65 56 51 212 201 190 178 167 160 158 160 165 172 178 181 196 264 328 336 335 336 337 332 327 328 328 326 326 324 320 312 303 297 295 292 285 285 294 306 308 290 264 257 269 272
150 148 129 107 80 21 67 92 184 158 163 192 175 147 138 134 129 128 136 144 150 150 147 142 135 124 103 86 90 84 62 69 82 22 358 87 112 78 25 86 95 100 126 156 217 240 234 185 167 158 155 157 164 168 176 195 233 265 286 307 316 313 311 314 312 307 309 314 316 315 313 311 309 304 297 294 292 285 278 279 288 291 269 237 235 249 257
152 150 130 119 149 185 201 153 133 95 83 120 128 127 129 128 122 120 129 136 141 147 146 137 129 120 87 61 79 87 46 55 81 64 21 90 113 60 39 54 351 282 186 180 212 241 171 162 158 152 149 156 166 177 218 254 267 275 282 292 300 299 298 302 305 305 305 309 312 311 306 302 302 302 297 290 288 284 275 269 269 269 263 250 246 250 256
143 133 123 119 106 85 129 140 128 92 90 122 128 129 130 127 120 120 130 134 133 139 141 132 125 125 68 27 68 90 34 39 88 91 39 76 111 121 112 121 235 211 182 209 255 180 155 154 151 144 142 156 181 229 257 259 263 272 282 292 299 301 301 304 309 311 311 311 311 309 304 299 299 302 301 293 283 275 271 268 262 256 253 255 254 253 256
120 117 122 114 95 99 126 131 120 85 96 127 131 131 131 129 126 126 134 136 133 131 127 113 104 106 88 38 56 58 8 35 115 100 77 104 138 126 122 158 215 192 174 186 181 158 151 150 151 152 162 184 215 239 250 259 268 279 289 298 302 303 305 308 310 314 318 320 318 312 305 300 299 301 301 299 289 277 274 279 276 265 257 254 253 252 254
104 110 120 121 142 155 154 145 138 146 150 143 139 137 135 133 133 133 137 139 137 130 119 103 90 85 76 60 67 101 130 124 90 61 73 166 164 135 131 186 227 199 165 155 153 151 151 153 160 172 185 204 232 246 254 274 285 288 295 302 304 304 307 310 312 318 327 333 332 325 314 306 304 303 301 299 292 281 276 282 285 276 265 259 255 253 254
105 118 111 113 142 154 155 144 138 144 145 142 140 141 140 138 137 138 141 142 138 122 119 128 115 80 73 114 130 123 115 97 67 46 136 170 184 197 198 168 164 161 155 149 147 149 152 156 164 189 222 235 245 258 274 288 293 295 302 308 309 308 312 312 313 319 328 335 336 332 323 315 310 308 305 302 296 287 281 281 279 271 265 265 264 262 261